Total_Precipitation_Accumulation
0.11 0.14 0.17 0.15 0.19 0.24 0.29 0.35 0.47 0.49 0.34 0.40 0.62 0.82 1.01 1.20 1.35 1.39 1.50 1.46 1.64 1.93 2.10 2.48 2.89 3.37 3.90 4.46 5.17 5.86 6.47 6.61 6.48 6.17 5.87 5.63 5.17 4.86 4.55 4.31 4.16 3.93 3.63 3.50
0.13 0.16 0.12 0.12 0.14 0.17 0.25 0.35 0.49 0.48 0.36 0.42 0.67 0.91 1.17 1.25 1.18 1.17 1.34 1.43 1.51 1.72 2.03 2.42 2.99 3.29 3.64 4.19 4.80 5.20 5.34 5.20 5.11 5.21 5.18 4.91 4.89 4.73 4.67 4.52 4.40 3.93 3.70 3.58
0.12 0.11 0.09 0.09 0.13 0.16 0.20 0.30 0.39 0.44 0.44 0.54 0.78 1.20 1.44 1.43 1.16 1.05 1.07 1.20 1.34 1.47 1.68 2.05 2.62 2.96 3.14 3.67 4.04 4.05 4.07 4.09 4.24 4.34 4.31 4.36 4.59 4.67 4.78 4.77 4.56 4.20 3.96 3.73
0.07 0.08 0.08 0.10 0.14 0.14 0.21 0.20 0.26 0.33 0.49 0.85 0.97 1.53 1.78 1.86 1.57 1.23 1.10 1.26 1.34 1.40 1.42 1.74 2.10 2.34 2.63 2.94 3.11 3.12 3.26 3.44 3.57 3.66 3.66 3.58 3.63 3.90 4.19 4.47 4.62 4.57 4.28 3.96
0.07 0.08 0.08 0.10 0.11 0.13 0.15 0.15 0.22 0.34 0.48 0.70 0.84 1.20 1.74 2.03 1.99 1.57 1.27 1.21 1.17 1.30 1.47 1.65 1.78 1.99 2.11 2.21 2.38 2.45 2.73 3.22 3.45 3.52 3.64 3.59 3.34 3.36 3.48 3.64 3.86 3.87 3.90 3.71
0.08 0.09 0.08 0.08 0.08 0.12 0.14 0.20 0.33 0.49 0.73 1.09 0.93 1.06 1.64 1.84 1.86 1.47 1.25 1.17 1.08 1.08 1.19 1.40 1.67 1.79 1.80 1.83 1.98 2.19 2.52 3.11 3.44 3.52 3.42 3.44 3.47 3.55 3.45 3.42 3.53 3.45 3.42 3.32
0.19 0.16 0.13 0.08 0.10 0.13 0.17 0.34 0.80 1.29 1.62 1.65 1.01 0.97 1.27 1.35 1.22 1.18 1.06 1.10 1.16 1.06 0.99 0.99 1.17 1.42 1.46 1.45 1.61 1.87 2.15 2.63 2.97 3.13 2.98 2.95 3.16 3.38 3.28 3.09 3.03 3.02 2.87 2.79
0.22 0.26 0.16 0.12 0.11 0.12 0.16 0.28 0.66 1.04 1.18 1.30 1.16 1.51 1.57 1.18 0.99 0.89 0.80 0.87 0.96 0.86 0.77 0.72 0.79 0.98 1.25 1.27 1.39 1.55 1.82 2.09 2.40 2.62 2.68 2.75 2.95 3.08 3.03 3.24 2.97 2.81 2.47 2.36
0.11 0.13 0.12 0.11 0.11 0.14 0.18 0.20 0.32 0.48 0.69 1.05 1.35 1.57 1.48 1.22 1.12 0.92 0.76 0.73 0.73 0.67 0.68 0.71 0.77 0.99 1.08 1.07 1.18 1.34 1.56 1.77 2.04 2.28 2.48 2.54 2.52 2.55 2.70 2.87 2.81 2.64 2.56 2.29
0.08 0.08 0.10 0.11 0.12 0.15 0.16 0.19 0.26 0.39 0.65 0.94 1.25 1.70 1.75 1.51 1.30 1.09 1.01 0.82 0.71 0.71 0.72 0.72 0.73 0.79 0.84 0.91 1.06 1.30 1.51 1.54 1.79 2.17 2.42 2.37 2.45 2.38 2.53 2.51 2.49 2.52 2.44 2.39
0.06 0.08 0.10 0.13 0.16 0.19 0.21 0.19 0.21 0.30 0.37 0.60 1.15 1.39 1.23 1.22 1.15 1.09 1.00 0.93 0.87 0.81 0.77 0.73 0.74 0.74 0.86 0.83 0.93 1.13 1.31 1.45 1.73 2.11 2.44 2.51 2.46 2.46 2.51 2.33 2.28 2.41 2.43 2.42
0.07 0.08 0.10 0.16 0.21 0.21 0.21 0.21 0.22 0.31 0.33 0.39 0.63 0.96 0.73 0.83 0.96 1.00 0.89 0.82 0.78 0.68 0.65 0.60 0.59 0.67 0.68 0.70 0.83 1.18 1.48 1.86 2.07 2.42 2.82 2.92 2.71 2.50 2.33 2.12 2.11 2.29 2.46 2.50
0.06 0.08 0.18 0.37 0.38 0.28 0.22 0.19 0.21 0.24 0.25 0.33 0.63 0.87 0.67 0.74 0.88 0.90 0.89 0.79 0.75 0.75 0.62 0.60 0.58 0.69 0.71 0.70 0.73 0.85 1.07 1.52 1.93 2.34 2.73 2.69 2.41 2.18 2.13 2.09 2.11 2.28 2.49 2.49
0.07 0.07 0.14 0.32 0.38 0.36 0.30 0.24 0.22 0.20 0.23 0.31 0.43 0.72 0.70 0.74 0.73 0.82 0.79 0.74 0.81 0.87 0.73 0.67 0.65 0.66 0.67 0.69 0.68 0.79 0.91 1.01 1.31 1.87 2.27 2.21 2.01 1.93 1.95 1.99 2.07 2.13 2.25 2.30
0.08 0.07 0.08 0.12 0.20 0.26 0.27 0.25 0.23 0.19 0.18 0.31 0.38 0.52 0.59 0.75 0.74 0.78 0.76 0.71 0.67 0.77 0.73 0.68 0.68 0.78 0.80 0.87 0.88 0.88 0.91 0.93 1.15 1.71 2.04 2.03 1.90 1.90 1.88 1.87 2.02 2.13 2.22 2.23
0.10 0.11 0.12 0.14 0.18 0.20 0.19 0.22 0.21 0.16 0.14 0.16 0.23 0.42 0.47 0.74 0.88 0.87 0.87 0.83 0.78 0.76 0.71 0.69 0.63 0.73 0.86 0.94 0.98 0.99 1.05 1.10 1.25 1.63 1.96 1.97 1.86 1.81 1.74 1.83 2.00 2.15 2.23 2.42
0.17 0.15 0.16 0.19 0.22 0.22 0.29 0.24 0.21 0.20 0.20 0.23 0.34 0.47 0.48 0.57 0.74 0.85 0.88 0.84 0.76 0.78 0.71 0.71 0.76 0.85 1.05 1.00 1.05 1.13 1.07 1.13 1.32 1.70 1.98 2.07 1.99 1.93 1.90 1.84 2.02 2.24 2.48 2.70
0.29 0.28 0.26 0.24 0.29 0.42 0.33 0.25 0.25 0.29 0.35 0.37 0.39 0.43 0.47 0.60 0.71 0.85 1.01 0.87 0.72 0.75 0.78 0.88 0.87 0.96 1.04 1.04 1.11 1.18 1.20 1.25 1.43 1.75 2.02 2.17 2.13 2.12 2.21 2.22 2.30 2.50 2.75 2.93
0.35 0.40 0.37 0.34 0.39 0.48 0.44 0.35 0.38 0.42 0.50 0.54 0.56 0.48 0.56 0.64 0.76 0.94 0.92 0.88 0.90 0.92 0.93 0.99 1.10 1.16 1.25 1.26 1.21 1.29 1.45 1.51 1.58 1.68 1.98 2.20 2.28 2.35 2.35 2.38 2.63 2.83 2.96 2.97
0.37 0.46 0.51 0.47 0.58 0.67 0.66 0.49 0.42 0.50 0.85 0.68 0.69 0.67 0.62 0.67 0.98 1.15 0.96 0.88 0.88 1.00 1.11 1.12 1.19 1.28 1.32 1.36 1.43 1.51 1.65 1.80 1.93 2.03 2.18 2.47 2.68 2.84 2.86 2.92 2.98 3.02 3.12 3.07
0.68 0.64 0.63 0.69 0.83 0.79 0.62 0.54 0.49 0.95 1.29 0.93 0.90 0.87 0.79 0.92 1.04 1.07 0.96 0.94 0.92 0.96 1.10 1.19 1.23 1.34 1.43 1.45 1.59 1.90 2.07 2.15 2.31 2.47 2.54 2.81 3.17 3.35 3.29 3.32 3.20 3.10 3.07 3.08
0.91 0.88 0.88 0.93 1.20 1.30 0.72 0.65 1.03 1.29 1.08 1.11 1.13 1.09 1.03 1.02 1.07 1.08 1.08 0.98 0.97 1.02 1.09 1.22 1.28 1.36 1.56 1.82 2.02 2.31 2.51 2.57 2.64 2.78 3.07 3.31 3.49 3.31 3.20 3.38 3.27 3.27 3.33 3.28
1.00 1.05 1.14 1.22 1.45 1.25 0.90 1.05 1.22 1.18 1.15 1.21 1.18 1.11 1.02 0.99 1.14 1.09 1.04 1.06 0.98 0.98 1.04 1.16 1.29 1.49 1.71 2.01 2.41 2.64 2.72 2.92 2.93 2.98 3.19 3.25 3.29 3.39 3.53 3.60 3.48 3.42 3.40 3.32
1.24 1.12 1.31 1.53 1.58 1.34 1.19 1.18 1.14 1.16 1.18 1.15 1.09 1.09 1.08 1.06 1.06 1.06 1.04 1.06 1.04 1.04 1.10 1.16 1.31 1.57 1.91 2.21 2.55 2.71 2.76 2.78 2.79 2.81 2.85 2.97 3.14 3.25 3.37 3.62 3.63 3.49 3.31 3.20
1.49 1.41 1.68 2.09 2.15 1.98 1.80 1.55 1.37 1.32 1.25 1.29 1.27 1.23 1.19 1.14 1.09 1.06 1.10 1.12 1.12 1.14 1.22 1.32 1.45 1.58 1.79 2.10 2.40 2.52 2.64 2.73 2.89 2.91 2.83 2.75 2.77 2.88 3.03 3.16 3.26 3.22 3.20 3.09
1.67 1.73 2.04 2.45 2.18 2.14 2.25 1.94 1.69 1.64 1.63 1.63 1.60 1.55 1.44 1.35 1.28 1.22 1.23 1.19 1.18 1.13 1.19 1.32 1.46 1.65 1.85 2.07 2.29 2.38 2.55 2.68 2.84 2.85 2.73 2.66 2.61 2.68 2.74 2.76 2.75 2.63 2.54 2.43